User: anonymous
Location: Albany
(35.0000°S, 118.0000°E)
Time: 22:41:25
(UTC-04:00)
Language:

Cosmos 2227 Rocket - Orbit

View from above orbital plane
View from above orbital plane
View from above satellite
View from above satellite

Ground track
Ground track

The orbit data is extracted from the following two-line orbital elements,

1 22285U 92093B   14113.55092012 -.00000219  00000-0 -88613-4 0  2858
2 22285 071.0202 105.9031 0002109 062.8925 297.2412 14.14906560 99771
Epoch (UTC): 23 April 2014 13:13:19
Eccentricity: 0.0002109
inclination: 71.0202°
perigee height: 841 km
apogee height: 844 km
right ascension of ascending node: 105.9031°
argument of perigee: 62.8925°
revolutions per day: 14.14906560
mean anomaly at epoch: 297.2412°
orbit number at epoch: 9977

The dashed part of the orbit path shows where the satellite is in the earth's shadow,  

DLR